カタログに戻る

STARLINK-30867

運用中通信VLEO
NORAD 58231·PAYLOAD·🇺🇸 United States

打ち上げ Nov 8, 2023 から Cape Canaveral Space Force Station

Loading…

次のパス (今後24時間)

TLE

最新Source: CelesTrak SupGP

元期: Sep 14, 2026, 22:00 UTC

1 58231C 23171B   26257.91715278 -.00009128  00000+0 -33065-3 0  2573
2 58231  43.0021 296.2693 0001396 259.9716 259.2880 15.27578994    18

AllMySatでSTARLINK-30867をリアルタイム追跡

Download on the App Store